Cosmos 1850 Rocket - Orbit

View from above orbital plane
View from above orbital plane
View from above satellite
View from above satellite

Ground track
Ground track

The orbit data is extracted from the following two-line orbital elements,

1 18096U 87049B   13138.84936257  .00000214  00000-0  82714-4 0  2189
2 18096 074.0441 081.5369 0023142 259.6085 161.1138 14.35852246358046
Epoch (UTC): 18 May 2013 20:23:04
Eccentricity: 0.0023142
inclination: 74.0441°
perigee height: 755 km
apogee height: 789 km
right ascension of ascending node: 81.5369°
argument of perigee: 259.6085°
revolutions per day: 14.35852246
mean anomaly at epoch: 161.1138°
orbit number at epoch: 35804

The dashed part of the orbit path shows where the satellite is in the earth's shadow,  

Developed and maintained by Chris Peat, Heavens-Above GmbH. Please read the updated FAQ before sending e-mail. Imprint. DLR